| time (UTC) | temp F | wind direction | speed MPH | gust MPH | rain 1hr in | rain 24hr in | rain mn in | humidity % | barometer mb |
| 20260507144510 | 46 | 323 | 4.0 | 7.0 | 0.00 | 0.00 | 0.00 | 42 | 1013.2 |
| 20260507144006 | 46 | 348 | 2.0 | 4.0 | 0.00 | 0.00 | 0.00 | 42 | 1013.2 |
| 20260507143510 | 44 | 323 | 4.0 | 7.0 | 0.00 | 0.00 | 0.00 | 43 | 1013.2 |
| 20260507143015 | 43 | 325 | 4.0 | 8.0 | 0.00 | 0.00 | 0.00 | 43 | 1013.2 |
| 20260507142509 | 43 | 319 | 4.0 | 8.0 | 0.00 | 0.00 | 0.00 | 43 | 1013.2 |
| 20260507142013 | 44 | 313 | 6.0 | 9.0 | 0.00 | 0.00 | 0.00 | 43 | 1013.2 |
| 20260507141508 | 44 | 333 | 4.0 | 6.0 | 0.00 | 0.00 | 0.00 | 42 | 1013.2 |
| 20260507141013 | 43 | 339 | 3.0 | 6.0 | 0.00 | 0.00 | 0.00 | 43 | 1013.2 |
| 20260507140507 | 43 | 329 | 5.0 | 10.0 | 0.00 | 0.00 | 0.00 | 43 | 1013.2 |
| 20260507140011 | 44 | 330 | 4.0 | 6.0 | 0.00 | 0.00 | 0.00 | 43 | 1013.2 |
| 20260507135506 | 43 | 348 | 2.0 | 5.0 | 0.00 | 0.00 | 0.00 | 43 | 1013.2 |
| 20260507135011 | 42 | 337 | 4.0 | 5.0 | 0.00 | 0.00 | 0.00 | 44 | 1012.7 |
| 20260507134515 | 41 | 329 | 4.0 | 8.0 | 0.00 | 0.00 | 0.00 | 44 | 1012.7 |
| 20260507134009 | 41 | 344 | 3.0 | 4.0 | 0.00 | 0.00 | 0.00 | 45 | 1013.2 |
| 20260507133513 | 41 | 332 | 4.0 | 6.0 | 0.00 | 0.00 | 0.00 | 45 | 1012.7 |
| 20260507133009 | 41 | 335 | 4.0 | 7.0 | 0.00 | 0.00 | 0.00 | 46 | 1012.7 |
| 20260507132513 | 41 | 336 | 3.0 | 6.0 | 0.00 | 0.00 | 0.00 | 46 | 1012.7 |
| 20260507132007 | 40 | 330 | 4.0 | 7.0 | 0.00 | 0.00 | 0.00 | 47 | 1012.7 |
| 20260507131511 | 40 | 328 | 4.0 | 8.0 | 0.00 | 0.00 | 0.00 | 47 | 1012.7 |
| 20260507131007 | 39 | 320 | 4.0 | 7.0 | 0.00 | 0.00 | 0.00 | 48 | 1012.7 |
| 20260507130511 | 39 | 337 | 3.0 | 5.0 | 0.00 | 0.00 | 0.00 | 49 | 1012.7 |
| 20260507130016 | 38 | 343 | 3.0 | 5.0 | 0.00 | 0.00 | 0.00 | 50 | 1012.7 |
| 20260507125510 | 37 | 338 | 3.0 | 6.0 | 0.00 | 0.00 | 0.00 | 51 | 1012.3 |
| 20260507125016 | 37 | 335 | 4.0 | 6.0 | 0.00 | 0.00 | 0.00 | 51 | 1012.3 |
| 20260507124509 | 37 | 331 | 4.0 | 6.0 | 0.00 | 0.00 | 0.00 | 51 | 1012.3 |
| 20260507124014 | 38 | 328 | 4.0 | 6.0 | 0.00 | 0.00 | 0.00 | 51 | 1012.3 |
| 20260507123508 | 38 | 323 | 4.0 | 7.0 | 0.00 | 0.00 | 0.00 | 51 | 1012.3 |
| 20260507123012 | 38 | 324 | 5.0 | 8.0 | 0.00 | 0.00 | 0.00 | 51 | 1012.3 |
| 20260507122507 | 37 | 324 | 4.0 | 6.0 | 0.00 | 0.00 | 0.00 | 51 | 1011.8 |
| 20260507122012 | 37 | 330 | 4.0 | 6.0 | 0.00 | 0.00 | 0.00 | 52 | 1011.8 |
| 20260507121506 | 37 | 326 | 4.0 | 8.0 | 0.00 | 0.00 | 0.00 | 52 | 1011.8 |
| 20260507121010 | 36 | 324 | 5.0 | 8.0 | 0.00 | 0.00 | 0.00 | 52 | 1011.8 |
| 20260507120516 | 36 | 327 | 4.0 | 7.0 | 0.00 | 0.00 | 0.00 | 53 | 1011.8 |
| 20260507120010 | 36 | 323 | 4.0 | 6.0 | 0.00 | 0.00 | 0.00 | 53 | 1011.8 |
| 20260507115514 | 35 | 327 | 5.0 | 8.0 | 0.00 | 0.00 | 0.00 | 53 | 1011.8 |
| 20260507115008 | 35 | 320 | 5.0 | 8.0 | 0.00 | 0.00 | 0.00 | 53 | 1011.8 |
| 20260507114514 | 35 | 314 | 5.0 | 8.0 | 0.00 | 0.00 | 0.00 | 52 | 1011.8 |
| 20260507114008 | 35 | 321 | 6.0 | 8.0 | 0.00 | 0.00 | 0.00 | 52 | 1011.8 |
| 20260507113512 | 35 | 314 | 5.0 | 8.0 | 0.00 | 0.00 | 0.00 | 52 | 1011.8 |
| 20260507113006 | 35 | 326 | 4.0 | 6.0 | 0.00 | 0.00 | 0.00 | 52 | 1011.4 |
| 20260507112512 | 35 | 328 | 4.0 | 6.0 | 0.00 | 0.00 | 0.00 | 51 | 1011.4 |
| 20260507112006 | 35 | 329 | 5.0 | 7.0 | 0.00 | 0.00 | 0.00 | 50 | 1011.4 |
| 20260507111511 | 35 | 315 | 6.0 | 8.0 | 0.00 | 0.00 | 0.00 | 50 | 1011.4 |
| 20260507111015 | 35 | 320 | 6.0 | 8.0 | 0.00 | 0.00 | 0.00 | 49 | 1011.4 |
| 20260507110510 | 35 | 322 | 6.0 | 8.0 | 0.00 | 0.00 | 0.00 | 49 | 1011.4 |
| 20260507110015 | 35 | 312 | 5.0 | 11.0 | 0.00 | 0.00 | 0.00 | 49 | 1011.4 |
| 20260507105508 | 35 | 317 | 6.0 | 9.0 | 0.00 | 0.00 | 0.00 | 48 | 1011.4 |
| 20260507105013 | 35 | 317 | 6.0 | 8.0 | 0.00 | 0.00 | 0.00 | 48 | 1011.4 |
| 20260507104508 | 35 | 315 | 6.0 | 9.0 | 0.00 | 0.00 | 0.00 | 47 | 1011.4 |
| 20260507104012 | 35 | 318 | 6.0 | 9.0 | 0.00 | 0.00 | 0.00 | 47 | 1011.4 |
| 20260507103506 | 35 | 314 | 6.0 | 8.0 | 0.00 | 0.00 | 0.00 | 47 | 1011.4 |
| 20260507103011 | 35 | 315 | 6.0 | 9.0 | 0.00 | 0.00 | 0.00 | 47 | 1011.4 |
| 20260507102515 | 35 | 309 | 6.0 | 8.0 | 0.00 | 0.00 | 0.00 | 46 | 1011.0 |
| 20260507102010 | 35 | 322 | 5.0 | 7.0 | 0.00 | 0.00 | 0.00 | 46 | 1011.0 |
| 20260507101515 | 35 | 314 | 6.0 | 8.0 | 0.00 | 0.00 | 0.00 | 46 | 1011.0 |
| 20260507101009 | 35 | 318 | 6.0 | 8.0 | 0.00 | 0.00 | 0.00 | 46 | 1011.0 |
| 20260507100513 | 35 | 319 | 6.0 | 8.0 | 0.00 | 0.00 | 0.00 | 46 | 1011.0 |
| 20260507100008 | 35 | 311 | 6.0 | 8.0 | 0.00 | 0.00 | 0.00 | 46 | 1011.0 |
| 20260507095513 | 35 | 316 | 6.0 | 8.0 | 0.00 | 0.00 | 0.00 | 46 | 1011.0 |
| 20260507095007 | 35 | 313 | 6.0 | 9.0 | 0.00 | 0.00 | 0.00 | 45 | 1011.0 |
| 20260507094511 | 35 | 311 | 7.0 | 10.0 | 0.00 | 0.00 | 0.00 | 45 | 1011.0 |
| 20260507094007 | 35 | 312 | 6.0 | 11.0 | 0.00 | 0.00 | 0.00 | 46 | 1011.0 |
| 20260507093511 | 35 | 323 | 6.0 | 9.0 | 0.00 | 0.00 | 0.00 | 46 | 1011.0 |
| 20260507093015 | 35 | 315 | 6.0 | 8.0 | 0.00 | 0.00 | 0.00 | 46 | 1010.5 |
| 20260507092509 | 35 | 316 | 7.0 | 11.0 | 0.00 | 0.00 | 0.00 | 45 | 1011.0 |
| 20260507092015 | 35 | 306 | 6.0 | 9.0 | 0.00 | 0.00 | 0.00 | 45 | 1011.0 |
| 20260507091510 | 35 | 306 | 6.0 | 9.0 | 0.00 | 0.00 | 0.00 | 45 | 1011.0 |
| 20260507091013 | 35 | 313 | 6.0 | 9.0 | 0.00 | 0.00 | 0.00 | 45 | 1011.0 |
| 20260507090507 | 34 | 321 | 6.0 | 8.0 | 0.00 | 0.00 | 0.00 | 45 | 1010.5 |
| 20260507090012 | 34 | 319 | 6.0 | 11.0 | 0.00 | 0.00 | 0.00 | 44 | 1010.5 |
| 20260507085508 | 34 | 309 | 6.0 | 9.0 | 0.00 | 0.00 | 0.00 | 44 | 1010.5 |
| 20260507085011 | 34 | 309 | 6.0 | 8.0 | 0.00 | 0.00 | 0.00 | 44 | 1010.5 |
| 20260507084506 | 34 | 312 | 6.0 | 9.0 | 0.00 | 0.00 | 0.00 | 45 | 1010.5 |
| 20260507084011 | 34 | 306 | 6.0 | 8.0 | 0.00 | 0.00 | 0.00 | 44 | 1010.5 |
| 20260507083515 | 34 | 311 | 6.0 | 9.0 | 0.00 | 0.00 | 0.00 | 44 | 1010.5 |
| 20260507083009 | 34 | 305 | 6.0 | 8.0 | 0.00 | 0.00 | 0.00 | 44 | 1010.5 |
| 20260507082514 | 34 | 316 | 7.0 | 9.0 | 0.00 | 0.00 | 0.00 | 44 | 1010.5 |
| 20260507082008 | 34 | 312 | 7.0 | 9.0 | 0.00 | 0.00 | 0.00 | 44 | 1010.5 |
| 20260507081513 | 34 | 319 | 6.0 | 9.0 | 0.00 | 0.00 | 0.00 | 43 | 1010.5 |
| 20260507081008 | 33 | 306 | 6.0 | 8.0 | 0.00 | 0.00 | 0.00 | 44 | 1010.5 |
| 20260507080512 | 33 | 310 | 6.0 | 9.0 | 0.00 | 0.00 | 0.00 | 44 | 1010.5 |
| 20260507080007 | 33 | 308 | 6.0 | 9.0 | 0.00 | 0.00 | 0.00 | 44 | 1010.5 |
| 20260507075512 | 33 | 309 | 6.0 | 8.0 | 0.00 | 0.00 | 0.00 | 44 | 1011.0 |
| 20260507075006 | 33 | 308 | 6.0 | 8.0 | 0.00 | 0.00 | 0.00 | 45 | 1011.0 |
| 20260507074510 | 33 | 315 | 6.0 | 8.0 | 0.00 | 0.00 | 0.00 | 44 | 1011.0 |
| 20260507074014 | 33 | 305 | 6.0 | 8.0 | 0.00 | 0.00 | 0.00 | 44 | 1011.0 |
| 20260507073510 | 33 | 307 | 6.0 | 8.0 | 0.00 | 0.00 | 0.00 | 44 | 1011.0 |
| 20260507073014 | 33 | 310 | 6.0 | 8.0 | 0.00 | 0.00 | 0.00 | 44 | 1011.0 |
| 20260507072509 | 33 | 309 | 6.0 | 8.0 | 0.00 | 0.00 | 0.00 | 44 | 1011.0 |
| 20260507072014 | 33 | 302 | 6.0 | 8.0 | 0.00 | 0.00 | 0.00 | 44 | 1011.0 |
| 20260507071508 | 33 | 310 | 6.0 | 8.0 | 0.00 | 0.00 | 0.00 | 44 | 1011.4 |
| 20260507071012 | 32 | 316 | 6.0 | 7.0 | 0.00 | 0.00 | 0.00 | 44 | 1011.0 |
| 20260507070506 | 32 | 295 | 5.0 | 7.0 | 0.00 | 0.00 | 0.00 | 44 | 1011.0 |
| 20260507070013 | 33 | 310 | 6.0 | 8.0 | 0.00 | 0.00 | 0.00 | 44 | 1011.0 |
| 20260507065506 | 32 | 314 | 5.0 | 7.0 | 0.00 | 0.00 | 0.00 | 44 | 1011.4 |
| 20260507065010 | 33 | 305 | 6.0 | 8.0 | 0.00 | 0.00 | 0.00 | 44 | 1011.4 |
| 20260507064514 | 33 | 308 | 5.0 | 7.0 | 0.00 | 0.00 | 0.00 | 44 | 1011.4 |
| 20260507064008 | 32 | 301 | 6.0 | 8.0 | 0.00 | 0.00 | 0.00 | 44 | 1011.4 |
| 20260507063514 | 33 | 310 | 5.0 | 7.0 | 0.00 | 0.00 | 0.00 | 44 | 1011.4 |
| 20260507063008 | 33 | 307 | 5.0 | 6.0 | 0.00 | 0.00 | 0.00 | 44 | 1011.4 |
| 20260507062513 | 33 | 311 | 5.0 | 8.0 | 0.00 | 0.00 | 0.00 | 44 | 1011.4 |
| 20260507062006 | 33 | 311 | 5.0 | 7.0 | 0.00 | 0.00 | 0.00 | 44 | 1011.4 |
| 20260507061512 | 33 | 305 | 6.0 | 10.0 | 0.00 | 0.00 | 0.00 | 44 | 1011.4 |
| 20260507061006 | 33 | 310 | 5.0 | 7.0 | 0.00 | 0.00 | 0.00 | 43 | 1011.4 |
| 20260507060511 | 33 | 312 | 5.0 | 7.0 | 0.00 | 0.00 | 0.00 | 43 | 1011.4 |
| 20260507060009 | 33 | 314 | 6.0 | 8.0 | 0.00 | 0.00 | 0.00 | 43 | 1011.4 |
| 20260507055510 | 32 | 306 | 6.0 | 8.0 | 0.00 | 0.00 | 0.00 | 43 | 1011.8 |
| 20260507055014 | 32 | 306 | 5.0 | 9.0 | 0.00 | 0.00 | 0.00 | 44 | 1011.8 |
| 20260507054508 | 32 | 307 | 6.0 | 8.0 | 0.00 | 0.00 | 0.00 | 44 | 1011.8 |
| 20260507054014 | 32 | 308 | 5.0 | 7.0 | 0.00 | 0.00 | 0.00 | 44 | 1011.8 |
| 20260507053508 | 33 | 309 | 6.0 | 8.0 | 0.00 | 0.00 | 0.00 | 43 | 1011.8 |
| 20260507053013 | 33 | 311 | 5.0 | 7.0 | 0.00 | 0.00 | 0.00 | 43 | 1011.8 |
| 20260507052507 | 32 | 302 | 5.0 | 6.0 | 0.00 | 0.00 | 0.00 | 43 | 1011.8 |
| 20260507052012 | 32 | 303 | 5.0 | 8.0 | 0.00 | 0.00 | 0.00 | 43 | 1011.8 |
| 20260507051506 | 33 | 311 | 6.0 | 8.0 | 0.00 | 0.00 | 0.00 | 43 | 1011.8 |
| 20260507051012 | 32 | 309 | 5.0 | 8.0 | 0.00 | 0.00 | 0.00 | 43 | 1011.8 |
| 20260507050516 | 33 | 309 | 5.0 | 7.0 | 0.00 | 0.00 | 0.00 | 43 | 1011.8 |
| 20260507050011 | 32 | 303 | 5.0 | 6.0 | 0.00 | 0.00 | 0.00 | 43 | 1011.8 |
| 20260507045515 | 32 | 313 | 5.0 | 6.0 | 0.00 | 0.00 | 0.00 | 43 | 1011.8 |
| 20260507045009 | 32 | 305 | 5.0 | 6.0 | 0.00 | 0.00 | 0.00 | 43 | 1011.8 |
| 20260507044513 | 33 | 316 | 5.0 | 7.0 | 0.00 | 0.00 | 0.00 | 42 | 1012.3 |
| 20260507044008 | 33 | 302 | 6.0 | 8.0 | 0.00 | 0.00 | 0.00 | 42 | 1012.3 |
| 20260507043513 | 33 | 308 | 5.0 | 7.0 | 0.00 | 0.00 | 0.00 | 42 | 1012.3 |
| 20260507043007 | 33 | 314 | 5.0 | 6.0 | 0.00 | 0.00 | 0.00 | 42 | 1012.3 |
| 20260507042511 | 32 | 310 | 5.0 | 6.0 | 0.00 | 0.00 | 0.00 | 43 | 1012.3 |
| 20260507042008 | 32 | 315 | 4.0 | 5.0 | 0.00 | 0.00 | 0.00 | 43 | 1012.3 |
| 20260507041511 | 32 | 311 | 5.0 | 6.0 | 0.00 | 0.00 | 0.00 | 43 | 1012.3 |
| 20260507041015 | 33 | 311 | 5.0 | 6.0 | 0.00 | 0.00 | 0.00 | 42 | 1012.3 |
| 20260507040509 | 32 | 317 | 4.0 | 6.0 | 0.00 | 0.00 | 0.00 | 42 | 1012.7 |
| 20260507040026 | 32 | 313 | 4.0 | 5.0 | 0.00 | 0.00 | 0.00 | 43 | 1012.7 |
| 20260507035509 | 32 | 313 | 4.0 | 6.0 | 0.00 | 0.00 | 0.00 | 43 | 1012.7 |
| 20260507035013 | 32 | 309 | 4.0 | 5.0 | 0.00 | 0.00 | 0.00 | 43 | 1012.7 |
| 20260507034509 | 32 | 309 | 4.0 | 6.0 | 0.00 | 0.00 | 0.00 | 43 | 1012.7 |
| 20260507034013 | 32 | 320 | 4.0 | 5.0 | 0.00 | 0.00 | 0.00 | 43 | 1013.2 |
| 20260507033507 | 32 | 326 | 4.0 | 5.0 | 0.00 | 0.00 | 0.00 | 42 | 1013.2 |
| 20260507033011 | 32 | 325 | 4.0 | 6.0 | 0.00 | 0.00 | 0.00 | 42 | 1013.2 |
| 20260507032508 | 32 | 317 | 4.0 | 5.0 | 0.00 | 0.00 | 0.00 | 43 | 1013.2 |
| 20260507032011 | 32 | 316 | 4.0 | 5.0 | 0.00 | 0.00 | 0.00 | 42 | 1013.2 |
| 20260507031515 | 32 | 317 | 4.0 | 5.0 | 0.00 | 0.00 | 0.00 | 42 | 1013.2 |
| 20260507031009 | 32 | 319 | 4.0 | 5.0 | 0.00 | 0.00 | 0.00 | 42 | 1013.2 |
| 20260507030515 | 32 | 317 | 3.0 | 4.0 | 0.00 | 0.00 | 0.00 | 42 | 1013.2 |
| 20260507030009 | 32 | 312 | 3.0 | 4.0 | 0.00 | 0.00 | 0.00 | 42 | 1013.2 |
| 20260507025514 | 32 | 325 | 3.0 | 4.0 | 0.00 | 0.00 | 0.00 | 42 | 1013.2 |
| 20260507025008 | 32 | 321 | 3.0 | 4.0 | 0.00 | 0.00 | 0.00 | 42 | 1013.2 |
| 20260507024513 | 32 | 321 | 3.0 | 4.0 | 0.00 | 0.00 | 0.00 | 42 | 1013.2 |
| 20260507024007 | 32 | 324 | 3.0 | 4.0 | 0.00 | 0.00 | 0.00 | 42 | 1013.2 |
| 20260507023512 | 33 | 316 | 3.0 | 4.0 | 0.00 | 0.00 | 0.00 | 42 | 1013.2 |
| 20260507023006 | 33 | 315 | 3.0 | 4.0 | 0.00 | 0.00 | 0.00 | 41 | 1013.2 |
| 20260507022510 | 33 | 330 | 3.0 | 4.0 | 0.00 | 0.00 | 0.00 | 41 | 1013.2 |
| 20260507022017 | 33 | 330 | 2.0 | 4.0 | 0.00 | 0.00 | 0.00 | 41 | 1013.2 |
| 20260507021510 | 33 | 326 | 3.0 | 4.0 | 0.00 | 0.00 | 0.00 | 41 | 1013.2 |
| 20260507021014 | 33 | 329 | 2.0 | 4.0 | 0.00 | 0.00 | 0.00 | 40 | 1013.2 |
| 20260507020508 | 34 | 330 | 2.0 | 4.0 | 0.00 | 0.00 | 0.00 | 40 | 1013.2 |
| 20260507020014 | 34 | 324 | 3.0 | 5.0 | 0.00 | 0.00 | 0.00 | 39 | 1013.2 |
| 20260507015508 | 34 | 314 | 4.0 | 6.0 | 0.00 | 0.00 | 0.00 | 39 | 1013.2 |
| 20260507015012 | 34 | 325 | 3.0 | 6.0 | 0.00 | 0.00 | 0.00 | 40 | 1013.2 |
| 20260507014506 | 34 | 327 | 2.0 | 3.0 | 0.00 | 0.00 | 0.00 | 40 | 1013.2 |
| 20260507014012 | 34 | 331 | 3.0 | 5.0 | 0.00 | 0.00 | 0.00 | 40 | 1013.6 |
| 20260507013506 | 35 | 322 | 3.0 | 4.0 | 0.00 | 0.00 | 0.00 | 40 | 1013.2 |
| 20260507013010 | 35 | 320 | 3.0 | 4.0 | 0.00 | 0.00 | 0.00 | 40 | 1013.2 |
| 20260507012514 | 35 | 322 | 3.0 | 5.0 | 0.00 | 0.00 | 0.00 | 39 | 1013.2 |
| 20260507012010 | 36 | 320 | 2.0 | 5.0 | 0.00 | 0.00 | 0.00 | 39 | 1013.2 |
| 20260507011514 | 36 | 327 | 2.0 | 5.0 | 0.00 | 0.00 | 0.00 | 39 | 1013.2 |
| 20260507011008 | 36 | 298 | 3.0 | 6.0 | 0.00 | 0.00 | 0.00 | 38 | 1013.2 |
| 20260507010512 | 36 | 335 | 2.0 | 4.0 | 0.00 | 0.00 | 0.00 | 38 | 1013.2 |
| 20260507010007 | 36 | 327 | 2.0 | 3.0 | 0.00 | 0.00 | 0.00 | 38 | 1013.2 |
| 20260507005512 | 36 | 327 | 3.0 | 6.0 | 0.00 | 0.00 | 0.00 | 38 | 1013.2 |
| 20260507005007 | 36 | 335 | 1.0 | 3.0 | 0.00 | 0.00 | 0.00 | 37 | 1013.2 |
| 20260507004510 | 37 | 312 | 3.0 | 5.0 | 0.00 | 0.00 | 0.00 | 36 | 1013.2 |
| 20260507004015 | 37 | 339 | 2.0 | 7.0 | 0.00 | 0.00 | 0.00 | 36 | 1013.2 |
| 20260507003510 | 38 | 312 | 4.0 | 8.0 | 0.00 | 0.00 | 0.00 | 35 | 1013.2 |
| 20260507003014 | 38 | 316 | 3.0 | 5.0 | 0.00 | 0.00 | 0.00 | 34 | 1013.2 |
| 20260507002509 | 39 | 316 | 3.0 | 7.0 | 0.00 | 0.00 | 0.00 | 34 | 1013.6 |
| 20260507002013 | 38 | 306 | 3.0 | 6.0 | 0.00 | 0.00 | 0.00 | 34 | 1013.6 |
| 20260507001508 | 38 | 332 | 2.0 | 4.0 | 0.00 | 0.00 | 0.00 | 34 | 1013.6 |
| 20260507001013 | 38 | 342 | 2.0 | 5.0 | 0.00 | 0.00 | 0.00 | 35 | 1013.6 |
| 20260507000507 | 38 | 320 | 3.0 | 7.0 | 0.00 | 0.00 | 0.00 | 35 | 1014.1 |
| 20260507000034 | 38 | 330 | 3.0 | 5.0 | 0.00 | 0.00 | 0.00 | 35 | 1014.1 |
| 20260506235506 | 36 | 327 | 3.0 | 7.0 | 0.00 | 0.00 | 0.00 | 35 | 1014.1 |
| 20260506235011 | 37 | 327 | 2.0 | 4.0 | 0.00 | 0.00 | 0.00 | 35 | 1014.1 |
| 20260506234515 | 38 | 311 | 4.0 | 6.0 | 0.00 | 0.00 | 0.00 | 35 | 1014.1 |
| 20260506234009 | 38 | 319 | 3.0 | 8.0 | 0.00 | 0.00 | 0.00 | 35 | 1014.1 |
| 20260506233515 | 40 | 306 | 4.0 | 7.0 | 0.00 | 0.00 | 0.00 | 34 | 1014.1 |
| 20260506233009 | 38 | 323 | 3.0 | 7.0 | 0.00 | 0.00 | 0.00 | 35 | 1014.1 |
| 20260506232513 | 39 | 314 | 2.0 | 5.0 | 0.00 | 0.00 | 0.00 | 35 | 1014.1 |
| 20260506232007 | 38 | 313 | 2.0 | 4.0 | 0.00 | 0.00 | 0.00 | 36 | 1014.1 |
| 20260506231513 | 38 | 316 | 4.0 | 7.0 | 0.00 | 0.00 | 0.00 | 35 | 1014.5 |
| 20260506231007 | 40 | 321 | 3.0 | 5.0 | 0.00 | 0.00 | 0.00 | 35 | 1014.1 |
| 20260506230511 | 39 | 343 | 2.0 | 4.0 | 0.00 | 0.00 | 0.00 | 35 | 1014.1 |
| 20260506230005 | 40 | 307 | 6.0 | 9.0 | 0.00 | 0.00 | 0.00 | 34 | 1014.1 |
| 20260506225511 | 40 | 303 | 3.0 | 5.0 | 0.00 | 0.00 | 0.00 | 33 | 1014.1 |
| 20260506225015 | 41 | 336 | 2.0 | 4.0 | 0.00 | 0.00 | 0.00 | 33 | 1014.1 |
| 20260506224509 | 40 | 325 | 2.0 | 4.0 | 0.00 | 0.00 | 0.00 | 34 | 1014.1 |
| 20260506224014 | 40 | 331 | 2.0 | 4.0 | 0.00 | 0.00 | 0.00 | 34 | 1014.1 |
| 20260506223508 | 39 | 318 | 7.0 | 11.0 | 0.00 | 0.00 | 0.00 | 33 | 1014.1 |
| 20260506223013 | 39 | 333 | 3.0 | 7.0 | 0.00 | 0.00 | 0.00 | 35 | 1014.1 |
| 20260506222507 | 40 | 308 | 5.0 | 9.0 | 0.00 | 0.00 | 0.00 | 34 | 1014.1 |
| 20260506222012 | 42 | 316 | 4.0 | 8.0 | 0.00 | 0.00 | 0.00 | 34 | 1014.5 |
| 20260506221506 | 42 | 339 | 1.0 | 3.0 | 0.00 | 0.00 | 0.00 | 35 | 1014.5 |
| 20260506221011 | 41 | 326 | 3.0 | 5.0 | 0.00 | 0.00 | 0.00 | 36 | 1014.5 |
| 20260506220516 | 41 | 326 | 2.0 | 4.0 | 0.00 | 0.00 | 0.00 | 36 | 1014.5 |
| 20260506220010 | 39 | 327 | 1.0 | 3.0 | 0.00 | 0.00 | 0.00 | 35 | 1014.9 |
| 20260506215514 | 41 | 331 | 5.0 | 11.0 | 0.00 | 0.00 | 0.00 | 34 | 1014.5 |
| 20260506215008 | 40 | 338 | 1.0 | 3.0 | 0.00 | 0.00 | 0.00 | 36 | 1014.9 |
| 20260506214514 | 38 | 307 | 6.0 | 8.0 | 0.00 | 0.00 | 0.00 | 36 | 1014.9 |
| 20260506214008 | 40 | 331 | 4.0 | 8.0 | 0.00 | 0.00 | 0.00 | 35 | 1014.9 |
| 20260506213512 | 41 | 321 | 3.0 | 7.0 | 0.00 | 0.00 | 0.00 | 34 | 1014.9 |
| 20260506213008 | 40 | 321 | 4.0 | 8.0 | 0.00 | 0.00 | 0.00 | 34 | 1014.9 |
| 20260506212512 | 40 | 319 | 3.0 | 7.0 | 0.00 | 0.00 | 0.00 | 34 | 1014.9 |
| 20260506212006 | 41 | 327 | 3.0 | 6.0 | 0.00 | 0.00 | 0.00 | 34 | 1014.9 |
| 20260506211510 | 41 | 334 | 2.0 | 3.0 | 0.00 | 0.00 | 0.00 | 35 | 1014.9 |
| 20260506211015 | 41 | 317 | 3.0 | 5.0 | 0.00 | 0.00 | 0.00 | 34 | 1015.4 |
| 20260506210509 | 41 | 324 | 3.0 | 6.0 | 0.00 | 0.00 | 0.00 | 34 | 1015.4 |
| 20260506210014 | 41 | 314 | 3.0 | 6.0 | 0.00 | 0.00 | 0.00 | 35 | 1015.4 |
| 20260506205508 | 40 | 348 | 2.0 | 4.0 | 0.00 | 0.00 | 0.00 | 35 | 1015.4 |
| 20260506205013 | 41 | 294 | 4.0 | 7.0 | 0.00 | 0.00 | 0.00 | 36 | 1015.4 |
| 20260506204507 | 40 | 320 | 2.0 | 5.0 | 0.00 | 0.00 | 0.00 | 36 | 1015.4 |
| 20260506204013 | 40 | 315 | 4.0 | 7.0 | 0.00 | 0.00 | 0.00 | 36 | 1015.4 |
| 20260506203506 | 40 | 333 | 2.0 | 8.0 | 0.00 | 0.00 | 0.00 | 36 | 1015.4 |
| 20260506203011 | 39 | 333 | 2.0 | 4.0 | 0.00 | 0.00 | 0.00 | 36 | 1015.4 |
| 20260506202515 | 39 | 311 | 2.0 | 4.0 | 0.00 | 0.00 | 0.00 | 36 | 1015.4 |
| 20260506202009 | 40 | 326 | 3.0 | 6.0 | 0.00 | 0.00 | 0.00 | 34 | 1015.4 |
| 20260506201515 | 40 | 321 | 3.0 | 7.0 | 0.00 | 0.00 | 0.00 | 34 | 1015.4 |
| 20260506201009 | 41 | 257 | 3.0 | 6.0 | 0.00 | 0.00 | 0.00 | 36 | 1015.4 |
| 20260506200513 | 37 | 314 | 3.0 | 6.0 | 0.00 | 0.00 | 0.00 | 36 | 1015.4 |
| 20260506200007 | 39 | 324 | 4.0 | 8.0 | 0.00 | 0.00 | 0.00 | 34 | 1015.8 |
| 20260506195513 | 40 | 321 | 3.0 | 7.0 | 0.00 | 0.00 | 0.00 | 35 | 1015.8 |
| 20260506195007 | 41 | 218 | 4.0 | 8.0 | 0.00 | 0.00 | 0.00 | 35 | 1015.8 |
| 20260506194511 | 40 | 304 | 3.0 | 6.0 | 0.00 | 0.00 | 0.00 | 35 | 1015.8 |
| 20260506194005 | 40 | 308 | 4.0 | 6.0 | 0.00 | 0.00 | 0.00 | 35 | 1015.8 |
| 20260506193512 | 41 | 323 | 3.0 | 8.0 | 0.00 | 0.00 | 0.00 | 36 | 1015.8 |
| 20260506193015 | 40 | 333 | 2.0 | 6.0 | 0.00 | 0.00 | 0.00 | 36 | 1015.8 |
| 20260506192509 | 41 | 318 | 3.0 | 6.0 | 0.00 | 0.00 | 0.00 | 36 | 1015.8 |
| 20260506192014 | 38 | 310 | 2.0 | 3.0 | 0.00 | 0.00 | 0.00 | 37 | 1015.8 |
| 20260506191508 | 39 | 302 | 2.0 | 4.0 | 0.00 | 0.00 | 0.00 | 36 | 1015.8 |
| 20260506191013 | 40 | 306 | 3.0 | 6.0 | 0.00 | 0.00 | 0.00 | 35 | 1015.8 |
| 20260506190507 | 40 | 283 | 2.0 | 5.0 | 0.00 | 0.00 | 0.00 | 36 | 1015.8 |
| 20260506190012 | 39 | 337 | 2.0 | 4.0 | 0.00 | 0.00 | 0.00 | 39 | 1015.8 |
| 20260506185506 | 38 | 19 | 2.0 | 4.0 | 0.00 | 0.00 | 0.00 | 38 | 1015.8 |
| 20260506185011 | 38 | 326 | 4.0 | 6.0 | 0.00 | 0.00 | 0.00 | 37 | 1016.3 |
| 20260506184505 | 38 | 329 | 3.0 | 6.0 | 0.00 | 0.00 | 0.00 | 36 | 1015.8 |
| 20260506184010 | 38 | 312 | 3.0 | 6.0 | 0.00 | 0.00 | 0.00 | 38 | 1015.8 |
| 20260506183515 | 38 | 330 | 2.0 | 4.0 | 0.00 | 0.00 | 0.00 | 39 | 1016.3 |
| 20260506183008 | 39 | 335 | 2.0 | 4.0 | 0.00 | 0.00 | 0.00 | 39 | 1016.3 |
| 20260506182513 | 39 | 332 | 2.0 | 3.0 | 0.00 | 0.00 | 0.00 | 39 | 1016.3 |
| 20260506182008 | 36 | 307 | 2.0 | 5.0 | 0.00 | 0.00 | 0.00 | 41 | 1016.3 |
| 20260506181513 | 38 | 307 | 3.0 | 5.0 | 0.00 | 0.00 | 0.00 | 40 | 1016.3 |
| 20260506181006 | 37 | 50 | 2.0 | 6.0 | 0.00 | 0.00 | 0.00 | 42 | 1016.3 |
| 20260506180511 | 36 | 319 | 2.0 | 5.0 | 0.00 | 0.00 | 0.00 | 43 | 1016.3 |
| 20260506180015 | 38 | 312 | 4.0 | 6.0 | 0.00 | 0.00 | 0.00 | 42 | 1016.3 |
| 20260506175510 | 38 | 339 | 2.0 | 3.0 | 0.00 | 0.00 | 0.00 | 41 | 1016.3 |
| 20260506175036 | 39 | 312 | 2.0 | 5.0 | 0.00 | 0.00 | 0.00 | 41 | 1016.3 |
| 20260506174509 | 40 | 359 | 1.0 | 2.0 | 0.00 | 0.00 | 0.00 | 42 | 1016.7 |
| 20260506174014 | 38 | 325 | 2.0 | 3.0 | 0.00 | 0.00 | 0.00 | 43 | 1016.7 |
| 20260506173508 | 35 | 353 | 1.0 | 2.0 | 0.00 | 0.00 | 0.00 | 46 | 1016.7 |
| 20260506173013 | 36 | 346 | 3.0 | 6.0 | 0.00 | 0.00 | 0.00 | 45 | 1016.7 |
| 20260506172507 | 36 | 335 | 1.0 | 3.0 | 0.00 | 0.00 | 0.00 | 46 | 1016.7 |
| 20260506172011 | 36 | 266 | 3.0 | 5.0 | 0.00 | 0.00 | 0.00 | 46 | 1016.7 |
| 20260506171506 | 34 | 358 | 1.0 | 3.0 | 0.00 | 0.00 | 0.00 | 47 | 1016.7 |
| 20260506171011 | 34 | 322 | 3.0 | 4.0 | 0.00 | 0.00 | 0.00 | 46 | 1016.7 |
| 20260506170515 | 34 | 331 | 2.0 | 4.0 | 0.00 | 0.00 | 0.00 | 45 | 1016.7 |
| 20260506170009 | 35 | 344 | 1.0 | 2.0 | 0.00 | 0.00 | 0.00 | 46 | 1016.7 |
| 20260506165515 | 36 | 316 | 3.0 | 6.0 | 0.00 | 0.00 | 0.00 | 46 | 1016.7 |
| 20260506165009 | 35 | 323 | 2.0 | 5.0 | 0.00 | 0.00 | 0.00 | 48 | 1016.7 |
| 20260506164513 | 33 | 328 | 2.0 | 3.0 | 0.00 | 0.00 | 0.00 | 49 | 1016.7 |
| 20260506164007 | 34 | 318 | 2.0 | 4.0 | 0.00 | 0.00 | 0.00 | 49 | 1016.7 |
| 20260506163513 | 34 | 350 | 2.0 | 3.0 | 0.00 | 0.00 | 0.00 | 49 | 1016.7 |
| 20260506163007 | 33 | 7 | 2.0 | 3.0 | 0.00 | 0.00 | 0.00 | 47 | 1016.7 |
| 20260506162511 | 32 | 9 | 3.0 | 5.0 | 0.00 | 0.00 | 0.00 | 48 | 1016.7 |
| 20260506162005 | 32 | 325 | 2.0 | 5.0 | 0.00 | 0.00 | 0.00 | 50 | 1016.7 |
| 20260506161510 | 33 | 356 | 2.0 | 3.0 | 0.00 | 0.00 | 0.00 | 49 | 1016.7 |
| 20260506161015 | 33 | 11 | 1.0 | 2.0 | 0.00 | 0.00 | 0.00 | 49 | 1016.7 |
| 20260506160509 | 32 | 359 | 1.0 | 3.0 | 0.00 | 0.00 | 0.00 | 50 | 1016.7 |
| 20260506160025 | 29 | 323 | 3.0 | 4.0 | 0.00 | 0.00 | 0.00 | 52 | 1016.7 |
| 20260506155508 | 29 | 349 | 2.0 | 4.0 | 0.00 | 0.00 | 0.00 | 52 | 1016.7 |
| 20260506155014 | 29 | 328 | 3.0 | 6.0 | 0.00 | 0.00 | 0.00 | 52 | 1016.7 |
| 20260506154507 | 29 | 337 | 2.0 | 3.0 | 0.00 | 0.00 | 0.00 | 54 | 1016.7 |
| 20260506154012 | 30 | 327 | 2.0 | 4.0 | 0.00 | 0.00 | 0.00 | 53 | 1016.7 |
| 20260506153506 | 30 | 343 | 2.0 | 4.0 | 0.00 | 0.00 | 0.00 | 53 | 1016.7 |
| 20260506153011 | 29 | 357 | 1.0 | 2.0 | 0.00 | 0.00 | 0.00 | 53 | 1016.3 |
| 20260506152516 | 30 | 324 | 2.0 | 4.0 | 0.00 | 0.00 | 0.00 | 54 | 1016.3 |
| 20260506152010 | 30 | 0 | 2.0 | 3.0 | 0.00 | 0.00 | 0.00 | 54 | 1016.3 |
| 20260506151514 | 30 | 338 | 2.0 | 3.0 | 0.00 | 0.00 | 0.00 | 55 | 1016.3 |
| 20260506151010 | 29 | 0 | 2.0 | 3.0 | 0.00 | 0.00 | 0.00 | 57 | 1016.3 |
| 20260506150514 | 27 | 340 | 2.0 | 4.0 | 0.00 | 0.00 | 0.00 | 59 | 1016.3 |
| 20260506150008 | 27 | 328 | 2.0 | 3.0 | 0.00 | 0.00 | 0.00 | 60 | 1016.3 |
| 20260506145512 | 26 | 355 | 2.0 | 3.0 | 0.00 | 0.00 | 0.00 | 60 | 1016.7 |
| 20260506145006 | 26 | 342 | 2.0 | 4.0 | 0.00 | 0.00 | 0.00 | 62 | 1016.3 |